Location: ??????
(56.0120°N, 39.1740°E)
Time: 07:41:09
(UTC+00:00)

Cosmos 1076 Rocket - Pass Details

Date: 14 April 2026
Orbit: 581 x 603 km, 82.5° (Epoch: 13 May)

Event Time Altitude Azimuth Distance (km) Brightness Sun altitude
Rises 22:48:13 0° 349° (N) 2,871 7.9 -22.0°
Reaches altitude 10° 22:50:28 10° 353° (N) 1,964 7.0 -21.9°
Maximum altitude 22:54:46 61° 74° (ENE) 688 3.9 -21.6°
Enters shadow 22:56:12 39° 138° (SE) 919 4.2 -21.5°
